| time (UTC) | temp F | wind direction | speed MPH | gust MPH | rain 1hr in | rain 24hr in | rain mn in | humidity % | barometer mb |
| 20260504110557 | 44 | 216 | 0.0 | 0.0 | 0.00 | 0.00 | 0.00 | 76 | 1014.0 |
| 20260504100551 | 44 | 216 | 0.0 | 0.0 | 0.00 | 0.00 | 0.00 | 74 | 1014.0 |
| 20260504081541 | 46 | 216 | 0.0 | 0.0 | 0.00 | 0.00 | 0.00 | 71 | 1014.0 |
| 20260504081041 | 46 | 216 | 0.0 | 0.0 | 0.00 | 0.00 | 0.00 | 70 | 1014.0 |
| 20260504080540 | 46 | 216 | 0.0 | 0.0 | 0.00 | 0.00 | 0.00 | 70 | 1014.0 |
| 20260504050525 | 50 | 216 | 0.0 | 0.0 | 0.00 | 0.00 | 0.00 | 61 | 1015.0 |
| 20260504050024 | 50 | 216 | 0.0 | 0.0 | 0.00 | 0.00 | 0.00 | 61 | 1015.0 |
| 20260504045524 | 50 | 216 | 0.0 | 0.0 | 0.00 | 0.00 | 0.00 | 61 | 1015.0 |
| 20260504045024 | 50 | 216 | 0.0 | 0.0 | 0.00 | 0.00 | 0.00 | 61 | 1015.0 |
| 20260504044523 | 50 | 216 | 0.0 | 0.0 | 0.00 | 0.00 | 0.00 | 61 | 1015.0 |
| 20260504044023 | 50 | 216 | 0.0 | 0.0 | 0.00 | 0.00 | 0.00 | 62 | 1015.0 |
| 20260504043522 | 50 | 216 | 0.0 | 0.0 | 0.00 | 0.00 | 0.00 | 62 | 1015.0 |
| 20260504043022 | 50 | 216 | 0.0 | 0.0 | 0.00 | 0.00 | 0.00 | 63 | 1015.0 |
| 20260504042021 | 50 | 216 | 0.0 | 0.0 | 0.00 | 0.00 | 0.00 | 59 | 1015.0 |
| 20260504041521 | 50 | 216 | 0.0 | 0.0 | 0.00 | 0.00 | 0.00 | 59 | 1015.0 |
| 20260504041020 | 50 | 216 | 0.0 | 0.0 | 0.00 | 0.00 | 0.00 | 60 | 1015.0 |
| 20260504040520 | 51 | 216 | 0.0 | 0.0 | 0.00 | 0.00 | 0.00 | 61 | 1015.0 |
| 20260504040020 | 51 | 216 | 0.0 | 0.0 | 0.00 | 0.00 | 0.00 | 59 | 1015.0 |
| 20260504035519 | 51 | 216 | 0.0 | 0.0 | 0.00 | 0.00 | 0.00 | 58 | 1015.0 |
| 20260504035019 | 51 | 216 | 0.0 | 3.0 | 0.00 | 0.00 | 0.00 | 59 | 1015.0 |
| 20260504034518 | 51 | 216 | 0.0 | 3.0 | 0.00 | 0.00 | 0.00 | 59 | 1015.0 |
| 20260504034018 | 52 | 216 | 0.0 | 0.0 | 0.00 | 0.00 | 0.00 | 56 | 1015.0 |
| 20260504033518 | 52 | 216 | 0.0 | 0.0 | 0.00 | 0.00 | 0.00 | 56 | 1015.0 |
| 20260504033017 | 52 | 216 | 0.0 | 0.0 | 0.00 | 0.00 | 0.00 | 54 | 1015.0 |
| 20260504032517 | 52 | 216 | 0.0 | 0.0 | 0.00 | 0.00 | 0.00 | 55 | 1015.0 |
| 20260504032016 | 52 | 216 | 0.0 | 0.0 | 0.00 | 0.00 | 0.00 | 54 | 1015.0 |
| 20260504031516 | 51 | 216 | 0.0 | 3.0 | 0.00 | 0.00 | 0.00 | 54 | 1015.0 |
| 20260504031016 | 51 | 216 | 0.0 | 3.0 | 0.00 | 0.00 | 0.00 | 56 | 1015.0 |
| 20260504030515 | 52 | 216 | 3.0 | 3.0 | 0.00 | 0.00 | 0.00 | 57 | 1015.0 |
| 20260504030015 | 53 | 216 | 3.0 | 0.0 | 0.00 | 0.00 | 0.00 | 54 | 1015.0 |
| 20260504025514 | 54 | 216 | 0.0 | 0.0 | 0.00 | 0.00 | 0.00 | 50 | 1015.0 |
| 20260504025014 | 54 | 216 | 0.0 | 0.0 | 0.00 | 0.00 | 0.00 | 49 | 1015.0 |
| 20260504024513 | 54 | 216 | 0.0 | 0.0 | 0.00 | 0.00 | 0.00 | 49 | 1015.0 |
| 20260504024013 | 54 | 216 | 0.0 | 0.0 | 0.00 | 0.00 | 0.00 | 50 | 1015.0 |
| 20260504023513 | 54 | 216 | 0.0 | 0.0 | 0.00 | 0.00 | 0.00 | 49 | 1015.0 |
| 20260504023012 | 54 | 216 | 0.0 | 0.0 | 0.00 | 0.00 | 0.00 | 48 | 1015.0 |
| 20260504022512 | 54 | 216 | 0.0 | 0.0 | 0.00 | 0.00 | 0.00 | 49 | 1015.0 |
| 20260504022011 | 54 | 216 | 0.0 | 0.0 | 0.00 | 0.00 | 0.00 | 49 | 1015.0 |
| 20260504021511 | 55 | 216 | 0.0 | 0.0 | 0.00 | 0.00 | 0.00 | 47 | 1015.0 |
| 20260504021010 | 55 | 216 | 0.0 | 0.0 | 0.00 | 0.00 | 0.00 | 47 | 1015.0 |
| 20260504020510 | 55 | 216 | 0.0 | 0.0 | 0.00 | 0.00 | 0.00 | 47 | 1015.0 |
| 20260504020010 | 56 | 216 | 0.0 | 0.0 | 0.00 | 0.00 | 0.00 | 46 | 1015.0 |
| 20260504015509 | 56 | 216 | 0.0 | 0.0 | 0.00 | 0.00 | 0.00 | 46 | 1015.0 |
| 20260504015009 | 56 | 216 | 0.0 | 0.0 | 0.00 | 0.00 | 0.00 | 45 | 1015.0 |
| 20260504014508 | 56 | 216 | 0.0 | 0.0 | 0.00 | 0.00 | 0.00 | 45 | 1015.0 |
| 20260504014008 | 56 | 216 | 0.0 | 0.0 | 0.00 | 0.00 | 0.00 | 45 | 1015.0 |
| 20260504013508 | 57 | 216 | 0.0 | 0.0 | 0.00 | 0.00 | 0.00 | 45 | 1015.0 |
| 20260504013007 | 57 | 216 | 0.0 | 0.0 | 0.00 | 0.00 | 0.00 | 45 | 1014.0 |
| 20260504012507 | 57 | 216 | 0.0 | 0.0 | 0.00 | 0.00 | 0.00 | 45 | 1014.0 |
| 20260504012007 | 58 | 216 | 0.0 | 0.0 | 0.00 | 0.00 | 0.00 | 44 | 1014.0 |
| 20260504011506 | 58 | 216 | 0.0 | 0.0 | 0.00 | 0.00 | 0.00 | 43 | 1014.0 |
| 20260504011006 | 58 | 216 | 0.0 | 0.0 | 0.00 | 0.00 | 0.00 | 42 | 1014.0 |
| 20260504010505 | 59 | 216 | 0.0 | 0.0 | 0.00 | 0.00 | 0.00 | 42 | 1014.0 |
| 20260504010005 | 59 | 216 | 0.0 | 0.0 | 0.00 | 0.00 | 0.00 | 41 | 1015.0 |
| 20260504005505 | 59 | 216 | 0.0 | 0.0 | 0.00 | 0.00 | 0.00 | 40 | 1015.0 |
| 20260504005004 | 59 | 216 | 0.0 | 0.0 | 0.00 | 0.00 | 0.00 | 40 | 1015.0 |
| 20260504004504 | 60 | 216 | 0.0 | 0.0 | 0.00 | 0.00 | 0.00 | 40 | 1015.0 |
| 20260504004003 | 60 | 216 | 0.0 | 0.0 | 0.00 | 0.00 | 0.00 | 40 | 1015.0 |
| 20260504003503 | 60 | 216 | 0.0 | 0.0 | 0.00 | 0.00 | 0.00 | 39 | 1015.0 |
| 20260504003003 | 60 | 216 | 0.0 | 0.0 | 0.00 | 0.00 | 0.00 | 39 | 1015.0 |
| 20260504002502 | 61 | 216 | 0.0 | 4.0 | 0.00 | 0.00 | 0.00 | 39 | 1015.0 |
| 20260504002002 | 62 | 216 | 0.0 | 3.0 | 0.00 | 0.00 | 0.00 | 37 | 1015.0 |
| 20260504001501 | 63 | 216 | 3.0 | 0.0 | 0.00 | 0.00 | 0.00 | 36 | 1015.0 |
| 20260504001001 | 63 | 216 | 0.0 | 3.0 | 0.00 | 0.00 | 0.00 | 35 | 1015.0 |
| 20260504000501 | 64 | 216 | 0.0 | 3.0 | 0.00 | 0.00 | 0.00 | 34 | 1015.0 |
| 20260504000000 | 65 | 216 | 0.0 | 3.0 | 0.00 | 0.00 | 0.00 | 34 | 1014.0 |
| 20260503235500 | 66 | 216 | 0.0 | 3.0 | 0.00 | 0.00 | 0.00 | 33 | 1014.0 |
| 20260503235000 | 67 | 216 | 0.0 | 4.0 | 0.00 | 0.00 | 0.00 | 32 | 1014.0 |
| 20260503234459 | 67 | 216 | 0.0 | 3.0 | 0.00 | 0.00 | 0.00 | 30 | 1014.0 |
| 20260503233959 | 67 | 214 | 0.0 | 3.0 | 0.00 | 0.00 | 0.00 | 29 | 1014.0 |
| 20260503233458 | 67 | 214 | 0.0 | 5.0 | 0.00 | 0.00 | 0.00 | 29 | 1014.0 |
| 20260503232958 | 67 | 214 | 0.0 | 6.0 | 0.00 | 0.00 | 0.00 | 28 | 1014.0 |
| 20260503232458 | 68 | 202 | 4.0 | 7.0 | 0.00 | 0.00 | 0.00 | 29 | 1014.0 |
| 20260503231957 | 68 | 243 | 4.0 | 6.0 | 0.00 | 0.00 | 0.00 | 29 | 1014.0 |
| 20260503231457 | 68 | 254 | 3.0 | 4.0 | 0.00 | 0.00 | 0.00 | 29 | 1014.0 |
| 20260503230956 | 69 | 187 | 3.0 | 7.0 | 0.00 | 0.00 | 0.00 | 29 | 1014.0 |
| 20260503230456 | 69 | 223 | 4.0 | 7.0 | 0.00 | 0.00 | 0.00 | 29 | 1014.0 |
| 20260503225956 | 69 | 193 | 4.0 | 8.0 | 0.00 | 0.00 | 0.00 | 29 | 1015.0 |
| 20260503225455 | 69 | 251 | 4.0 | 6.0 | 0.00 | 0.00 | 0.00 | 29 | 1015.0 |
| 20260503225044 | 69 | 223 | 3.0 | 6.0 | 0.00 | 0.00 | 0.00 | 29 | 1015.0 |
| 20260503224950 | 69 | 223 | 3.0 | 6.0 | 0.00 | 0.00 | 0.00 | 29 | 1015.0 |
| 20260503224450 | 69 | 218 | 0.0 | 4.0 | 0.00 | 0.00 | 0.00 | 28 | 1014.0 |
| 20260503223950 | 69 | 173 | 3.0 | 7.0 | 0.00 | 0.00 | 0.00 | 28 | 1014.0 |
| 20260503223449 | 69 | 224 | 3.0 | 6.0 | 0.00 | 0.00 | 0.00 | 29 | 1014.0 |
| 20260503222949 | 69 | 226 | 0.0 | 5.0 | 0.00 | 0.00 | 0.00 | 29 | 1015.0 |
| 20260503222440 | 69 | 311 | 0.0 | 3.0 | 0.00 | 0.00 | 0.00 | 29 | 1015.0 |
| 20260503221939 | 69 | 311 | 0.0 | 4.0 | 0.00 | 0.00 | 0.00 | 29 | 1015.0 |
| 20260503221439 | 69 | 311 | 0.0 | 5.0 | 0.00 | 0.00 | 0.00 | 30 | 1015.0 |
| 20260503220938 | 69 | 282 | 3.0 | 4.0 | 0.00 | 0.00 | 0.00 | 29 | 1015.0 |
| 20260503220438 | 69 | 293 | 0.0 | 5.0 | 0.00 | 0.00 | 0.00 | 29 | 1015.0 |
| 20260503215938 | 69 | 324 | 0.0 | 4.0 | 0.00 | 0.00 | 0.00 | 29 | 1015.0 |
| 20260503215437 | 69 | 334 | 3.0 | 7.0 | 0.00 | 0.00 | 0.00 | 28 | 1015.0 |
| 20260503214937 | 69 | 262 | 0.0 | 8.0 | 0.00 | 0.00 | 0.00 | 29 | 1015.0 |
| 20260503214437 | 69 | 248 | 4.0 | 6.0 | 0.00 | 0.00 | 0.00 | 29 | 1015.0 |
| 20260503213936 | 69 | 210 | 4.0 | 7.0 | 0.00 | 0.00 | 0.00 | 29 | 1015.0 |
| 20260503213436 | 69 | 196 | 3.0 | 6.0 | 0.00 | 0.00 | 0.00 | 29 | 1015.0 |
| 20260503212935 | 69 | 212 | 4.0 | 4.0 | 0.00 | 0.00 | 0.00 | 29 | 1015.0 |
| 20260503212435 | 69 | 256 | 0.0 | 7.0 | 0.00 | 0.00 | 0.00 | 30 | 1015.0 |
| 20260503211935 | 69 | 212 | 4.0 | 7.0 | 0.00 | 0.00 | 0.00 | 30 | 1015.0 |
| 20260503211434 | 69 | 230 | 0.0 | 10.0 | 0.00 | 0.00 | 0.00 | 30 | 1015.0 |
| 20260503210934 | 69 | 192 | 5.0 | 7.0 | 0.00 | 0.00 | 0.00 | 30 | 1015.0 |
| 20260503210434 | 69 | 212 | 0.0 | 6.0 | 0.00 | 0.00 | 0.00 | 31 | 1015.0 |
| 20260503205933 | 69 | 210 | 5.0 | 6.0 | 0.00 | 0.00 | 0.00 | 31 | 1016.0 |
| 20260503205433 | 69 | 294 | 4.0 | 6.0 | 0.00 | 0.00 | 0.00 | 31 | 1016.0 |
| 20260503204932 | 68 | 207 | 3.0 | 6.0 | 0.00 | 0.00 | 0.00 | 31 | 1016.0 |
| 20260503204432 | 68 | 199 | 0.0 | 8.0 | 0.00 | 0.00 | 0.00 | 31 | 1016.0 |
| 20260503203932 | 68 | 187 | 5.0 | 4.0 | 0.00 | 0.00 | 0.00 | 31 | 1016.0 |
| 20260503203421 | 68 | 292 | 3.0 | 8.0 | 0.00 | 0.00 | 0.00 | 31 | 1016.0 |
| 20260503202921 | 68 | 308 | 3.0 | 4.0 | 0.00 | 0.00 | 0.00 | 30 | 1016.0 |
| 20260503202420 | 68 | 304 | 3.0 | 7.0 | 0.00 | 0.00 | 0.00 | 32 | 1016.0 |
| 20260503201920 | 68 | 302 | 4.0 | 6.0 | 0.00 | 0.00 | 0.00 | 29 | 1016.0 |
| 20260503201415 | 69 | 312 | 3.0 | 6.0 | 0.00 | 0.00 | 0.00 | 28 | 1016.0 |
| 20260503200915 | 69 | 225 | 4.0 | 8.0 | 0.00 | 0.00 | 0.00 | 30 | 1016.0 |
| 20260503200415 | 68 | 187 | 4.0 | 7.0 | 0.00 | 0.00 | 0.00 | 31 | 1016.0 |
| 20260503195914 | 68 | 254 | 3.0 | 7.0 | 0.00 | 0.00 | 0.00 | 31 | 1016.0 |
| 20260503195414 | 68 | 255 | 5.0 | 6.0 | 0.00 | 0.00 | 0.00 | 30 | 1016.0 |
| 20260503194914 | 68 | 297 | 0.0 | 7.0 | 0.00 | 0.00 | 0.00 | 30 | 1016.0 |
| 20260503194413 | 68 | 294 | 3.0 | 6.0 | 0.00 | 0.00 | 0.00 | 29 | 1016.0 |
| 20260503193913 | 67 | 199 | 3.0 | 13.0 | 0.00 | 0.00 | 0.00 | 30 | 1016.0 |
| 20260503193412 | 67 | 298 | 3.0 | 7.0 | 0.00 | 0.00 | 0.00 | 29 | 1016.0 |
| 20260503192912 | 67 | 242 | 3.0 | 5.0 | 0.00 | 0.00 | 0.00 | 28 | 1017.0 |
| 20260503192412 | 67 | 276 | 4.0 | 5.0 | 0.00 | 0.00 | 0.00 | 26 | 1017.0 |
| 20260503191911 | 67 | 241 | 0.0 | 10.0 | 0.00 | 0.00 | 0.00 | 27 | 1017.0 |
| 20260503191411 | 67 | 183 | 4.0 | 8.0 | 0.00 | 0.00 | 0.00 | 28 | 1017.0 |
| 20260503190910 | 67 | 186 | 5.0 | 8.0 | 0.00 | 0.00 | 0.00 | 28 | 1017.0 |
| 20260503190410 | 67 | 310 | 4.0 | 6.0 | 0.00 | 0.00 | 0.00 | 28 | 1017.0 |
| 20260503185910 | 67 | 290 | 0.0 | 4.0 | 0.00 | 0.00 | 0.00 | 29 | 1017.0 |
| 20260503185409 | 67 | 208 | 3.0 | 5.0 | 0.00 | 0.00 | 0.00 | 31 | 1017.0 |
| 20260503184909 | 67 | 301 | 4.0 | 7.0 | 0.00 | 0.00 | 0.00 | 31 | 1017.0 |
| 20260503184409 | 67 | 197 | 6.0 | 4.0 | 0.00 | 0.00 | 0.00 | 33 | 1017.0 |
| 20260503183908 | 67 | 227 | 0.0 | 6.0 | 0.00 | 0.00 | 0.00 | 32 | 1017.0 |
| 20260503183408 | 67 | 285 | 3.0 | 8.0 | 0.00 | 0.00 | 0.00 | 31 | 1017.0 |
| 20260503182907 | 67 | 206 | 4.0 | 9.0 | 0.00 | 0.00 | 0.00 | 33 | 1017.0 |
| 20260503182407 | 66 | 200 | 4.0 | 6.0 | 0.00 | 0.00 | 0.00 | 33 | 1017.0 |
| 20260503181907 | 66 | 201 | 0.0 | 7.0 | 0.00 | 0.00 | 0.00 | 33 | 1017.0 |
| 20260503181402 | 65 | 186 | 5.0 | 7.0 | 0.00 | 0.00 | 0.00 | 33 | 1017.0 |
| 20260503180901 | 65 | 6 | 0.0 | 5.0 | 0.00 | 0.00 | 0.00 | 33 | 1017.0 |
| 20260503180401 | 65 | 6 | 4.0 | 5.0 | 0.00 | 0.00 | 0.00 | 33 | 1017.0 |
| 20260503175947 | 65 | 293 | 3.0 | 4.0 | 0.00 | 0.00 | 0.00 | 34 | 1018.0 |
| 20260503175901 | 65 | 6 | 4.0 | 5.0 | 0.00 | 0.00 | 0.00 | 33 | 1018.0 |
| 20260503175400 | 65 | 293 | 3.0 | 4.0 | 0.00 | 0.00 | 0.00 | 34 | 1018.0 |
| 20260503174900 | 65 | 210 | 0.0 | 7.0 | 0.00 | 0.00 | 0.00 | 34 | 1018.0 |
| 20260503174359 | 64 | 183 | 4.0 | 6.0 | 0.00 | 0.00 | 0.00 | 34 | 1017.0 |
| 20260503173859 | 64 | 300 | 0.0 | 4.0 | 0.00 | 0.00 | 0.00 | 34 | 1017.0 |
| 20260503173359 | 64 | 301 | 3.0 | 4.0 | 0.00 | 0.00 | 0.00 | 33 | 1017.0 |
| 20260503172858 | 63 | 356 | 0.0 | 5.0 | 0.00 | 0.00 | 0.00 | 34 | 1018.0 |
| 20260503172358 | 63 | 322 | 3.0 | 4.0 | 0.00 | 0.00 | 0.00 | 34 | 1018.0 |
| 20260503171853 | 63 | 351 | 0.0 | 5.0 | 0.00 | 0.00 | 0.00 | 34 | 1018.0 |
| 20260503171352 | 63 | 347 | 4.0 | 5.0 | 0.00 | 0.00 | 0.00 | 34 | 1018.0 |
| 20260503170852 | 63 | 351 | 4.0 | 5.0 | 0.00 | 0.00 | 0.00 | 35 | 1018.0 |
| 20260503170352 | 62 | 305 | 4.0 | 4.0 | 0.00 | 0.00 | 0.00 | 35 | 1018.0 |
| 20260503150837 | 57 | 328 | 0.0 | 4.0 | 0.00 | 0.00 | 0.00 | 48 | 1018.0 |
| 20260503150337 | 56 | 328 | 0.0 | 5.0 | 0.00 | 0.00 | 0.00 | 47 | 1018.0 |
| 20260503131323 | 51 | 298 | 3.0 | 5.0 | 0.00 | 0.00 | 0.00 | 63 | 1018.0 |
| 20260503130822 | 50 | 285 | 0.0 | 5.0 | 0.00 | 0.00 | 0.00 | 67 | 1018.0 |
| 20260503130321 | 50 | 291 | 3.0 | 6.0 | 0.00 | 0.00 | 0.00 | 68 | 1017.0 |